Regional Weather Roundup
Issued by NWS Upton, NY

Current Version | Previous Version | Text Only | Print | Product List | Glossary Off
Versions: 1 2 3 4 5 6 7 8 9 10 11 12 13 14 15 16 17 18 19 20 21 22 23 24 25 26 27 28 29 30 31 32 33 34 35 36 37 38 39 40 41 42 43 44 45 46 47 48 49 50

000
ASUS41 KOKX 302305
RWROKX

REGIONAL WEATHER ROUNDUP
NATIONAL WEATHER SERVICE NEW YORK NY
600 PM EST FRI JAN 30 2015

NOTE: "FAIR" INDICATES FEW OR NO CLOUDS BELOW 12,000 FEET WITH NO
SIGNIFICANT WEATHER AND/OR OBSTRUCTIONS TO VISIBILITY.

NYZ071-072-176-178-NJZ106-104-310000-
NEW YORK CITY METRO AREA


CITY           SKY/WX    TMP DP  RH WIND       PRES   REMARKS
CENTRAL PARK   CLOUDY    32  13  45 NW17G29   29.93R WCI  21
LAGUARDIA APRT PTCLDY    32  17  54 NW28G33   29.91R WCI  18
KENNEDY INTL   PTCLDY    33  16  49 NW24G35   29.91R WCI  20
NEWARK/LIBERTY PTCLDY    30  16  56 NW17G29   29.94R WCI  18
BRNX BOT. GARD   N/A    N/A N/A N/A W8        29.93R
TETERBORO      PTCLDY    30  13  49 NW18G28   29.93R WCI  18
$$

NYZ177-179-078>081-310000-
LONG ISLAND NEW YORK

CITY           SKY/WX    TMP DP  RH WIND       PRES   REMARKS
FARMINGDALE    CLEAR     33  16  49 NW17G25   29.87R WCI  22
ISLIP          MOCLDY    33  17  51 NW21      29.84R WCI  21
SHIRLEY        CLOUDY    33  20  58 NW14      29.85R WCI  23
WESTHAMPTON    CLOUDY    32  19  58 NW16G24   29.84R WCI  21
MONTAUK POINT    N/A     33  23  66 NW16G25   29.80R WCI  23
$$

NYZ052-065-067-310000-
HUDSON VALLEY

CITY           SKY/WX    TMP DP  RH WIND       PRES   REMARKS
WHITE PLAINS   PTCLDY    29  14  53 NW22G35   29.86R WCI  15
NEWBURGH       PTCLDY    27  16  63 NW23G35   29.92R WCI  12
MONTGOMERY     CLOUDY    26  12  55 NW18G25   29.94R WCI  13
POUGHKEEPSIE   PTCLDY    29  10  45 NW22G30   29.93R WCI  15
ALBANY         MOCLDY    20   9  62 W23G43    29.98R WCI   3
$$

NJZ001-105-106-008-010-013-015-019>022-104-310000-
NEW JERSEY

CITY           SKY/WX    TMP DP  RH WIND       PRES   REMARKS
NEWARK/LIBERTY PTCLDY    30  16  56 NW17G29   29.94R WCI  18
TETERBORO      PTCLDY    30  13  49 NW18G28   29.93R WCI  18
CALDWELL       MIX PCPN  28  11  48 NW15G37   29.96R WCI  16
MORRISTOWN     PTCLDY    28  14  54 N20G33    29.96R WCI  15
SOMERVILLE     FAIR      30  12  47 NW22G32   29.97R WCI  17
SUSSEX         PTCLDY    24   9  52 W9G17     29.97R WCI  14
ANDOVER          N/A     24   9  52 VRB7G18   29.97R WCI  16
TRENTON        PTCLDY    31  12  45 NW15G31   29.97R WCI  20
MILLVILLE      CLEAR     32  16  51 NW21G32   30.01R WCI  20
ATLANTIC CITY  CLEAR     33  22  63 NW20G29   29.97R WCI  21
WRIGHTSTOWN    PTCLDY    32  21  63 NW16G24   29.94R WCI  21
TOMS RIVER     CLEAR     34  18  51 NW15G29   29.94R WCI  24
BELMAR         PTCLDY    34  12  40 NW23G33   29.92R WCI  22
$$

PAZ047>061-062-071-310000-
EASTERN PENNSYLVANIA

CITY           SKY/WX    TMP DP  RH WIND       PRES   REMARKS
PHILADELPHIA   MOCLDY    33  19  56 NW23G35   30.03R WCI  21
ALLENTOWN      MOCLDY    27  12  53 NW25G31   30.03R WCI  12
SCRANTON       CLOUDY    20   9  62 N20       30.06R WCI   4
$$

CTZ002-004>006-009-010-012-RIZ004-006-007-MAZ004-011-015-310000-
SOUTHERN NEW ENGLAND
 IN CT

CITY           SKY/WX    TMP DP  RH WIND       PRES   REMARKS
BRADLEY INTL   MOCLDY    29  15  56 NW20G26   29.82R WCI  16
HARTFORD       CLOUDY    30  16  56 NW10      29.85R WCI  21
DANBURY        CLOUDY    29  13  51 NW15G23   29.87R WCI  18
WTRBRY/OXFORD  PTCLDY    27  10  50 NW12G24   29.83R WCI  16
BRIDGEPORT     CLEAR     30  16  56 N17G26    29.86R WCI  18
MERIDEN        CLOUDY    29  15  56 NW22G33   29.84R WCI  15
NEW HAVEN      PTCLDY    31  15  52 NW8       29.84R WCI  23
CHESTER        FLURRIES  30  18  59 NW15G32   29.80R WCI  19
GROTON         PTCLDY    29  20  69 NW15G25   29.79R WCI  18
WILLIMANTIC    FLURRIES  30  19  63 NW14G23   29.80R WCI  19

 IN RI

CITY           SKY/WX    TMP DP  RH WIND       PRES   REMARKS
PROVIDENCE     FLURRIES  32  26  78 NW10      29.75R WCI  24
BLOCK ISLAND   CLOUDY    34  21  60 NW15G22   29.75R WCI  24
WESTERLY       CLOUDY    32  22  66 NW7G18    29.78R WCI  26

 IN MA

CITY           SKY/WX    TMP DP  RH WIND       PRES   REMARKS
BOSTON         FLURRIES  33  27  78 NW13G21   29.73R WCI  24
WORCESTER      FLURRIES  27  19  72 NW17G33   29.71S WCI  14
WESTFIELD      FLURRIES  27  17  66 NW17      29.82R WCI  14
PROVINCETOWN   CLOUDY    34  28  80 NW17G23   29.69F WCI  23
NANTUCKET      CLOUDY    34  31  88 NW17      29.68R WCI  23
$$

ANZ330-335-338-340-345-350-353-355-310000-
COASTAL MARINE OBSERVATIONS


STATION/POSITION TIME  SKY/WX   TEMP    WIND        PRES    VSBY  WAVE
                                AIR SEA DIR/SP/G                  HT/PER
                 (UTC)          (F)     (DEG/KT/KT) (MB)    (MI)  (FT/S)
NY HARB ENTRANCE 2300            36 40  310/ 29/ 35 1010.9          5/ 5
4S FIRE IS       2300               38                N/A           4/ 4
20S FIRE ISLAND  2200               41              1010.0          5/ 6
23SW MTP         2300                                 N/A           5/ 5
HUDSON CANYON    NOT AVBL
EXECUTION ROCKS  2300            33 33  280/ 21/ 29   N/A
WESTERN LI SOUND 2300            34     310/ 19/ 29   N/A           2/ 3
CENTRAL LI SOUND 2200            33 35  310/ 23/ 29   N/A           2/ 4
EASTERN LI SOUND NOT AVBL
ROBBINS REEF     2300            32     320/ 27/ 34 1012.0
$$


>>>>>>>>>>>>>>>>>>>>>>>>>>>> KEY <<<<<<<<<<<<<<<<<<<<<<<<<<<
>                                                          <
>     SKY/WX - SKY CONDITION/PRESENT WEATHER               <
>     TMP    - TEMPERATURE IN FAHRENHEIT                   <
>     DP     - DEWPOINT IN FAHRENHEIT                      <
>     RH     - RELATIVE HUMIDITY IN PERCENT                <
>     WIND   - DIRECTION AND SPEED IN MPH                  <
>     PRES   - MEAN SEA LEVEL PRESSURE IN INCHES OF HG     <
>     WCI    - WIND CHILL INDEX                            <
>     VSB    - VISIBILITY IN MILES                         <
>     HX     - HEAT INDEX                                  <
>     TC     - TEMPERATURE IN CELSIUS                      <
>     VRB    - VARIABLE WIND DIRECTION                     <
>                                                          <
>>>>>>>>>>>>>>>>>>>>>>>>>>>> KEY <<<<<<<<<<<<<<<<<<<<<<<<<<<





USA.gov is the U.S. government's official web portal to all federal, state and local government web resources and services.